Hourly Weather Dziergowice

Today, 6 May, Thursday

Time Temperature Precipitation Wind Pressure Humidity
00:00 +3°C° 0 mm 5 mps 739 mmHg 81%
01:00 +4°C° 0 mm 4 mps 739 mmHg 82%
02:00 +3°C° 0 mm 4 mps 740 mmHg 83%
03:00 +3°C° 0 mm 4 mps 740 mmHg 84%
04:00 +1°C° 0 mm 4 mps 741 mmHg 84%
05:00 +3°C° 0 mm 4 mps 741 mmHg 78%
06:00 +5°C° 0 mm 4 mps 742 mmHg 72%
07:00 +6°C° 0 mm 5 mps 742 mmHg 66%
08:00 +7°C° 0 mm 5 mps 742 mmHg 60%
09:00 +9°C° 0 mm 5 mps 742 mmHg 54%
10:00 +10°C° 0 mm 5 mps 742 mmHg 48%
11:00 +10°C° 0 mm 6 mps 741 mmHg 50%
12:00 +11°C° 0 mm 7 mps 741 mmHg 52%
13:00 +11°C° 0 mm 7 mps 741 mmHg 53%
14:00 +11°C° 0.1 mm 7 mps 740 mmHg 57%
15:00 +11°C° 0.1 mm 6 mps 740 mmHg 60%
16:00 +10°C° 0.1 mm 6 mps 739 mmHg 63%
17:00 +10°C° 0.1 mm 6 mps 739 mmHg 67%
18:00 +9°C° 0.1 mm 7 mps 739 mmHg 70%
19:00 +8°C° 0.1 mm 7 mps 739 mmHg 73%
20:00 +8°C° 0 mm 7 mps 739 mmHg 74%
21:00 +7°C° 0 mm 6 mps 739 mmHg 75%
22:00 +7°C° 0 mm 5 mps 739 mmHg 76%
23:00 +7°C° 0 mm 5 mps 739 mmHg 77%

Tomorrow, 7 May, Friday

Time Temperature Precipitation Wind Pressure Humidity
00:00 +7°C° 0 mm 5 mps 739 mmHg 78%
01:00 +7°C° 0 mm 5 mps 739 mmHg 78%
02:00 +7°C° 0 mm 5 mps 738 mmHg 79%
03:00 +7°C° 0 mm 5 mps 738 mmHg 79%
04:00 +7°C° 0 mm 5 mps 738 mmHg 80%
05:00 +8°C° 0.2 mm 4 mps 738 mmHg 82%
06:00 +8°C° 0.2 mm 4 mps 739 mmHg 84%
07:00 +9°C° 0.2 mm 3 mps 739 mmHg 87%
08:00 +8°C° 0.6 mm 4 mps 739 mmHg 87%
09:00 +8°C° 0.6 mm 4 mps 740 mmHg 87%
10:00 +8°C° 0.6 mm 4 mps 741 mmHg 87%
11:00 +7°C° 0.1 mm 4 mps 741 mmHg 88%
12:00 +6°C° 0.1 mm 4 mps 742 mmHg 89%
13:00 +5°C° 0.1 mm 4 mps 743 mmHg 90%
14:00 +6°C° 0 mm 4 mps 743 mmHg 84%
15:00 +8°C° 0 mm 3 mps 743 mmHg 78%
16:00 +10°C° 0 mm 2 mps 744 mmHg 72%
17:00 +9°C° 0.1 mm 2 mps 744 mmHg 76%
18:00 +9°C° 0.1 mm 1 mps 744 mmHg 81%
19:00 +8°C° 0.1 mm 1 mps 744 mmHg 85%
20:00 +8°C° 0 mm 1 mps 744 mmHg 86%
21:00 +6°C° 0 mm 2 mps 744 mmHg 88%
22:00 +5°C° 0 mm 2 mps 744 mmHg 89%
23:00 +5°C° 0 mm 2 mps 744 mmHg 89%

Day after tomorrow, 8 May, Saturday

Time Temperature Precipitation Wind Pressure Humidity
00:00 +5°C° 0 mm 2 mps 744 mmHg 88%
01:00 +5°C° 0 mm 2 mps 744 mmHg 88%
02:00 +5°C° 0 mm 2 mps 744 mmHg 88%
03:00 +6°C° 0 mm 2 mps 743 mmHg 88%
04:00 +6°C° 0 mm 2 mps 743 mmHg 88%
05:00 +5°C° 0.1 mm 3 mps 742 mmHg 87%
06:00 +7°C° 0.1 mm 3 mps 742 mmHg 85%
07:00 +8°C° 0.1 mm 3 mps 742 mmHg 84%
08:00 +8°C° 0 mm 4 mps 742 mmHg 81%
09:00 +9°C° 0 mm 5 mps 741 mmHg 78%
10:00 +10°C° 0 mm 6 mps 741 mmHg 76%
11:00 +14°C° 0 mm 7 mps 741 mmHg 72%
12:00 +16°C° 0 mm 7 mps 740 mmHg 67%
13:00 +18°C° 0 mm 8 mps 740 mmHg 63%
14:00 +18°C° 0 mm 8 mps 740 mmHg 65%
15:00 +20°C° 0 mm 7 mps 739 mmHg 66%
16:00 +20°C° 0 mm 7 mps 739 mmHg 68%
17:00 +19°C° 0 mm 6 mps 739 mmHg 72%
18:00 +17°C° 0 mm 5 mps 738 mmHg 75%
19:00 +17°C° 0 mm 4 mps 738 mmHg 79%
20:00 +15°C° 0 mm 4 mps 738 mmHg 81%
21:00 +14°C° 0 mm 4 mps 737 mmHg 83%
22:00 +14°C° 0 mm 4 mps 737 mmHg 84%
23:00 +13°C° 0 mm 4 mps 736 mmHg 84%

9 May, Sunday

Time Temperature Precipitation Wind Pressure Humidity
00:00 +13°C° 0 mm 3 mps 736 mmHg 84%
01:00 +13°C° 0 mm 3 mps 735 mmHg 83%

10 May, Monday

Time Temperature Precipitation Wind Pressure Humidity

11 May, Tuesday

Time Temperature Precipitation Wind Pressure Humidity
Show more

We Need Your Consent

Meteoprog and our Service Providers may store and access personal data such as cookies, device identifiers or other similar technologies on your device and process such data to personalise content and ads, as well as provide social media features and to analyse the traffic.

  • Store and/or access information on your device

    Cookies, device identifiers or other information can be stored or accessed on your device for the purposes indicated above.

  • Personalised ads and content, ad and content measurement, audience insights, and products development

    Ads and content can be personalised based on a profile. More data can be added to better personalise ads and content. Ad and content performance can be measured. Insights about the audience who saw the ads and content can be derived. Such data can be used to develop or improve user’s experience, systems and software.

By clicking ‘I Agree’ you will allow the use of indicated cookies, device identifiers, web beacons or other similar technologies. Your settings can be changed in the browser on your device.

For certain purposes, legitimate interests may be relied on, rather than consent. You can read more about this in our Privacy and Cookie Policy.